星链-34182 (STARLINK-34182)

导读

STARLINK-34182是美国SpaceX公司星链星座中一颗量产通信卫星,于2025年5月14日完成发射,归属星链低轨互联网组网任务序列。作为V2 Mini优化版卫星,它减重提升效能,搭载Ku/Ka波段通信载荷与星间链路,依托霍尔推进器实现轨道机动与末期主动离轨。该卫星服务全球宽带互联,可提供低延迟高速网络,进一步扩充了星链星座规模,助力星链实现全球无缝覆盖目标。

Basic Information
目录编号:
64013
目录名称:
STARLINK-34182
国际标识:
2025-101V
轨道中心:
EARTH
卫星名称:
星链-34182
卫星全名:
星链-34182 (STARLINK-34182)
卫星状态:
在轨 (已飞行478 天)
发射日期:
2025-05-14 UTC
国别 :
美国 (US)
星等 :
--
Orbit Information
数据来源 国际轨道数据
星历时间: 2026-09-04T05:06:26+0800
15小时前
查看轨道信息
半长轴: 6861.152km
偏心率: 0.0001357
轨道倾角: 43.002°
近地点辐角 256.773°
升交点赤经 68.466°
平近点角 103.297°
近地点: 482.083km
远地点: 483.947km
周期: 94.266分钟
每日圈数: 15.275914
Detailed Information
固有亮度:
5
最大亮度:
2.5
卫星平台:
Starlink V1.0
覆盖范围:
全球
运营商:
太空探索技术公司
运营商所在国:
美国
制造商(研发单位):
太空探索技术公司
制造商所在国:
美国
使用方式:
暂无
Satellite Introduction
Starlink 计划是 SpaceX 推出的全球卫星互联网项目,通过发射低轨道卫星,为全球尤其是偏远地区提供高速、低延迟的互联网服务。自 2019 年起,Starlink 已部署数千颗卫星,旨在缩小全球数字鸿沟,推动互联网普及。该项目还为军事、航空等行业提供通信支持,带来广泛经济效益。
2D Orbit Map
3D Orbit Map
Orbit Altitude Analysis Chart
Orbit Inclination Analysis Chart
Orbit Comprehensive Analysis Chart
View Comprehensive Chart
Conjunction Data List
Event ID Objects TCA Miss Dist (km) Collision Risk Probability Collision Risk Index (CRI) Action
CDM_260906-165005-987606-401321
2026-09-06T
16:50:42+0000
0.501 km
远距离
1.244407E-4 高风险 0.77
CDM_260906-222605-548406-401321
2026-09-06T
22:26:39+0000
1.058 km
极远距离
4.645947E-6 低风险 0.48